This demonstration page uses our WeatherBlox Daily Observations layout. Learn more.

Left ArrowRight Arrow

Hourly Observations for April 10, 2022

Temp ( °F °C ) Dew Point ( °F °C ) Humidity (%) Winds ( mph kmh ) Pressure ( in mb ) Visibility ( mi km ) Precip ( " mm )
12:56 am 00:56 Partly Cloudy 50 9.8 23 -4.9 35 35 SE 13 20 29.68 1005 10 16 0.00 0.00
1:56 am 01:56 Mostly Clear 49 9.7 23 -5 35 35 SE 16 26 29.64 1004 10 16 0.00 0.00
2:56 am 02:56 Mostly Cloudy 50 10.1 21 -6.3 31 31 SE 15 24 29.60 1002 10 16 0.00 0.00
3:56 am 03:56 Partly Cloudy 50 9.9 20 -6.5 31 31 ESE 10 17 29.57 1001 10 16 0.00 0.00
4:56 am 04:56 Mostly Clear 50 9.8 20 -6.5 31 31 ESE 12 19 29.52 1000 10 16 0.00 0.00
5:56 am 05:56 Mostly Cloudy 50 9.9 21 -6 32 32 SE 14 22 29.48 998 10 16 0.00 0.00
6:56 am 06:56 Mostly Cloudy 49 9.6 22 -5.5 34 34 undefined N/A 29.46 998 10 16 0.00 0.00
7:56 am 07:56 Mostly Cloudy 49 9.5 23 -4.8 36 36 SE 13 20 29.44 997 10 16 0.00 0.00
8:56 am 08:56 Partly Cloudy 51 10.5 26 -3.6 37 37 ESE 12 19 29.43 997 10 16 0.00 0.00
9:56 am 09:56 Mostly Sunny 56 13.6 29 -1.6 35 35 SSE 14 22 29.43 997 10 16 0.00 0.00
10:56 am 10:56 Mostly Sunny 61 16.2 32 -0.1 33 33 S 12 19 29.39 995 10 16 0.00 0.00
11:56 am 11:56 Sunny 66 18.8 33 0.8 30 30 SW 8 13 29.39 995 10 16 0.00 0.00
12:56 pm 12:56 Sunny 68 20.2 34 1.1 28 28 W 12 19 29.39 995 10 16 0.00 0.00
1:56 pm 13:56 Sunny 67 19.3 32 -0.2 27 27 WNW 20 31 29.43 997 10 16 0.00 0.00
2:56 pm 14:56 Sunny 67 19.5 29 -1.6 24 24 WNW 17 28 29.44 997 10 16 0.00 0.00
3:56 pm 15:56 Sunny 68 20.1 27 -2.9 21 21 NW 17 28 29.47 998 10 16 0.00 0.00
4:02 pm 16:02 Sunny 68 20 27 -3 21 21 WNW 18 30 29.47 998 10 16 0.00 0.00
4:56 pm 16:56 Sunny 66 18.7 27 -2.9 23 23 WNW 18 30 29.52 1000 10 16 0.00 0.00
5:56 pm 17:56 Sunny 66 18.8 31 -0.6 27 27 NW 18 30 29.54 1000 10 16 0.00 0.00
6:56 pm 18:56 Mostly Cloudy 61 16.3 35 1.9 38 38 NW 16 26 29.59 1002 10 16 0.00 0.00
7:56 pm 19:56 Mostly Sunny 57 14.1 35 1.4 42 42 WNW 13 20 29.66 1005 10 16 0.00 0.00
8:56 pm 20:56 Mostly Cloudy 55 12.5 33 0.6 44 44 NW 9 15 29.69 1006 10 16 0.00 0.00
9:56 pm 21:56 Clear 52 11.3 32 0.1 46 46 NNW 5 7 29.71 1006 10 16 0.00 0.00
10:56 pm 22:56 Clear 50 10.2 32 0.2 50 50 NNW 8 13 29.74 1007 10 16 0.00 0.00
11:56 pm 23:56 Mostly Cloudy 48 9.1 32 -0.2 53 53 NNW 9 15 29.77 1008 10 16 0.00 0.00

Powered by AerisWeather